Weather observations for the past three days for
College Park Airport
Imperial (Metric)
Date Time (edt) Wind (mph) Vis. (mi.) Weather Sky Cond. Temperature (ºF) Relative Humidity Wind Chill (°F) Heat Index (°F) Pressure Precipitation (in)
Air Dwpt 6 hour altimeter (in) sea level (mb) 1 hr 3 hr 6 hr
Max. Min.
13 07:45 N 3 10.00 Overcast OVC011 75.7 72.3 75.9 73.9 89% 76 30.18 0.0
13 07:25 NE 3 10.00 Overcast OVC011 75.4 72.1 90% 75 30.18 0.0
13 07:05 Calm 10.00 Overcast BKN009 BKN080 OVC110 74.8 72.1 91% 30.18 0.0
13 06:45 Calm 10.00 Overcast SCT013 SCT080 OVC110 74.5 72.3 93% 30.18 0.0
13 06:25 Calm 10.00 Overcast SCT015 OVC100 74.1 72.3 94% 30.17 0.0
13 06:05 Calm 10.00 Overcast SCT015 BKN100 OVC120 74.3 72 92% 30.17 0.0
13 05:45 Calm 7.00 Overcast SCT013 BKN020 OVC100 74.5 72 92% 30.17 0.0
13 05:25 Calm 10.00 Overcast SCT060 BKN070 OVC100 74.1 71.8 92% 30.16 0.0
13 05:05 Calm 10.00 Overcast SCT060 BKN070 OVC100 74.5 71.8 91% 30.16 0.0
13 04:45 Calm 10.00 Overcast SCT012 SCT070 OVC100 74.5 71.8 91% 30.15 0.0
13 04:25 Calm 10.00 Overcast OVC110 75.2 71.8 89% 75 30.14 0.0
13 04:05 Calm 10.00 Overcast SCT018 SCT050 OVC110 75.2 71.6 89% 75 30.14 0.0
13 03:45 S 3 10.00 Overcast OVC016 75.4 71.6 88% 75 30.14 0.0
13 03:25 S 3 10.00 Overcast OVC018 75.2 71.4 88% 75 30.15 0.0
13 03:05 S 3 10.00 Overcast BKN018 BKN070 OVC100 75.2 71.4 88% 75 30.15 0.0
13 02:45 S 3 10.00 Overcast SCT016 SCT070 OVC100 75.2 71.4 88% 75 30.16 0.0
13 02:25 S 5 10.00 Overcast SCT011 OVC100 75.4 71.6 88% 75 30.16 0.0
13 02:05 Calm 10.00 Overcast BKN011 OVC100 75.6 71.6 88% 75 30.17 0.0
13 01:45 S 5 10.00 Overcast SCT011 OVC100 75.6 71.4 80.6 75.6 87% 76 30.17 0.0
13 01:25 S 3 10.00 Overcast SCT013 OVC100 75.6 71.4 87% 76 30.17 0.0
13 01:05 S 6 10.00 Overcast BKN013 OVC017 75.7 71.4 87% 76 30.18 0.0
13 00:45 S 5 10.00 Overcast OVC013 76.1 71.6 86% 77 30.18 0.0
13 00:25 SE 3 10.00 Mostly Cloudy BKN013 BKN021 BKN090 76.3 71.6 86% 77 30.18 0.0
13 00:05 SE 5 10.00 Mostly Cloudy BKN018 BKN022 76.6 71.4 84% 78 30.18 0.0
12 23:45 SE 6 10.00 Overcast OVC016 77 71.4 83% 78 30.18 0.0
12 23:25 S 6 10.00 Overcast BKN016 OVC110 77 71.2 82% 78 30.18 0.0
12 23:05 SE 5 10.00 Mostly Cloudy BKN018 BKN050 BKN110 77.4 71.6 83% 79 30.17 0.0
12 22:45 S 3 10.00 Overcast BKN018 OVC031 77.9 71.2 80% 80 30.18 0.0
12 22:25 S 6 10.00 Mostly Cloudy SCT020 BKN032 BKN038 78.1 71.2 80% 80 30.18 0.0
12 22:05 S 9 10.00 Mostly Cloudy SCT016 BKN022 BKN037 78.3 72 81% 81 30.18 0.0
12 21:45 S 7 10.00 Overcast BKN015 BKN021 OVC032 79 73.6 84% 82 30.17 0.0
12 21:25 S 3 5.00 Overcast with Haze BKN015 BKN024 OVC035 79.2 73.9 84% 83 30.17 0.0
12 21:05 S 6 10.00 Overcast BKN017 BKN025 OVC034 79.3 73.9 84% 83 30.16 0.0
12 20:45 SE 5 10.00 Mostly Cloudy SCT021 SCT027 BKN042 79.5 73.9 83% 84 30.17 0.0
12 20:25 SE 5 10.00 Overcast SCT021 BKN039 OVC100 79.7 73.6 82% 84 30.17 0.0
12 20:05 SE 6 10.00 Overcast SCT021 BKN032 OVC060 80.1 73.2 80% 84 30.17 0.0
12 19:45 SE 5 10.00 Mostly Cloudy SCT030 BKN048 BKN060 80.4 72.9 82.8 77.4 78% 85 30.17 0.0
12 19:25 SE 3 10.00 Mostly Cloudy SCT035 SCT042 BKN080 80.6 72.7 77% 85 30.16 0.0
12 19:05 SE 6 10.00 Overcast SCT021 BKN030 OVC045 80.8 72.3 76% 85 30.16 0.0
12 18:45 E 5 10.00 Overcast SCT021 BKN042 OVC095 80.6 72.9 77% 85 30.16 0.0
12 18:25 SE 6 10.00 Overcast BKN025 BKN033 OVC042 81.3 72.3 74% 86 30.16 0.0
12 18:05 E 6 10.00 Overcast SCT020 SCT026 OVC035 81.1 71.6 73% 85 30.16 0.0
12 17:45 E 3 10.00 Mostly Cloudy BKN023 BKN035 81.9 72.9 74% 87 30.16 0.0
12 17:25 Calm 10.00 Partly Cloudy SCT120 81.3 72.9 76% 86 30.15 0.0
12 17:05 E 3 10.00 Mostly Cloudy SCT021 BKN110 80.1 72.1 77% 84 30.15 0.0
12 16:45 NE 5 10.00 Mostly Cloudy SCT023 SCT038 BKN110 79.9 71.6 76% 83 30.14 0.0
12 16:25 NE 5 10.00 Mostly Cloudy SCT023 BKN038 BKN075 80.1 72 76% 84 30.14 0.0
12 16:05 E 6 10.00 Partly Cloudy SCT017 SCT023 SCT075 80.2 70.5 72% 84 30.14 0.0
12 15:45 Calm 10.00 Mostly Cloudy SCT017 SCT023 BKN037 80.1 73 79% 84 30.15 0.0
12 15:25 Calm 10.00 Mostly Cloudy SCT017 SCT026 BKN036 79.2 73.4 83% 83 30.16 0.0
12 15:05 Calm 10.00 Partly Cloudy SCT022 SCT041 SCT110 78.6 73 83% 82 30.16 0.0
12 14:45 N 3 10.00 Partly Cloudy SCT016 78.3 72.9 84% 81 30.16 0.0
12 14:25 Calm 10.00 Partly Cloudy SCT017 78.3 72.9 84% 81 30.17 0.0
12 14:05 NE 6 10.00 Mostly Cloudy SCT011 SCT016 BKN110 77.9 72.5 84% 80 30.17 0.0
12 13:45 Calm 10.00 Overcast SCT012 BKN042 OVC110 77.4 73.2 79.2 75.6 87% 79 30.16 0.0 0.02
12 13:25 NE 3 10.00 Light Rain SCT040 BKN080 OVC110 76.8 73.4 89% 78 30.15 0.0
12 13:05 N 5 10.00 Light Rain SCT075 OVC110 76.1 72.5 89% 76 30.16 0.0
12 12:45 N 3 10.00 Light Rain SCT065 SCT080 OVC090 76.1 73.2 91% 76 30.17 0.0 0.01
12 12:25 N 6 10.00 Light Rain OVC090 76.1 73.2 91% 76 30.18 0.0 0.01
12 12:05 Calm 7.00 Rain SCT075 BKN100 OVC120 76.5 71.6 85% 77 30.2 0.0
12 11:45 Calm 10.00 Light Rain SCT023 SCT043 BKN075 76.1 71.6 86% 77 30.2 0.0
12 11:25 E 6 7.00 Rain SCT020 BKN060 OVC070 77.2 70.9 81% 79 30.2 0.0
12 11:05 SE 5 10.00 Overcast SCT050 OVC070 77.5 70 78% 79 30.18 0.0
12 10:45 E 6 10.00 Mostly Cloudy SCT048 SCT060 BKN090 78.4 69.3 74% 81 30.16 0.0
12 10:25 N 6 10.00 Partly Cloudy SCT070 SCT085 78.3 69.1 74% 81 30.15 0.0
12 10:05 NE 6 10.00 Overcast SCT021 OVC070 78.3 68.4 72% 80 30.16 0.0
12 09:45 E 3 10.00 Overcast SCT021 OVC070 78.1 68 71% 80 30.16 0.0
12 09:25 Calm 10.00 Mostly Cloudy BKN070 76.8 67.5 73% 78 30.15 0.0
12 09:05 NW 8 10.00 Partly Cloudy SCT021 SCT025 SCT070 75.7 67.5 76% 77 30.14 0.0
12 08:45 NW 13 10.00 Mostly Cloudy BKN021 BKN070 76.1 67.1 74% 78 30.13 0.0
12 08:25 NW 5 10.00 Overcast SCT023 SCT046 OVC070 77.5 67.3 71% 79 30.16 0.0
12 08:05 N 3 10.00 Overcast BKN070 OVC080 76.8 67.5 73% 78 30.15 0.0
12 07:45 E 3 10.00 Overcast SCT070 BKN080 OVC120 76.6 67.1 76.8 71.2 72% 78 30.15 0.0
12 07:25 NE 5 10.00 Overcast SCT070 OVC080 76.5 66.4 71% 78 30.13 0.0
12 07:05 N 6 10.00 Overcast OVC070 75 66.6 75% 76 30.12 0.0
12 06:45 N 3 10.00 Overcast OVC070 75.2 66.6 75% 76 30.13 0.0
12 06:25 E 5 10.00 Overcast BKN070 OVC075 75 66.2 74% 76 30.12 0.0
12 06:05 SE 3 10.00 Overcast SCT070 BKN075 OVC100 75.9 65.7 71% 78 30.11 0.0
12 05:45 Calm 10.00 Mostly Cloudy SCT070 BKN100 75.2 65.8 73% 77 30.09 0.0
12 05:25 N 5 10.00 Mostly Cloudy SCT075 BKN100 75.6 65.5 71% 77 30.09 0.0
12 05:05 Calm 10.00 Overcast BKN075 OVC100 75.2 66 73% 77 30.1 0.0
12 04:45 Calm 10.00 Overcast SCT075 OVC100 75 66 74% 76 30.1 0.0
12 04:25 Calm 10.00 Overcast OVC100 74.8 65.8 74% 30.1 0.0
12 04:05 Calm 10.00 Overcast OVC100 74.1 66 76% 30.09 0.0
12 03:45 N 5 10.00 Mostly Cloudy BKN100 73.8 65.7 76% 30.09 0.0
12 03:25 Calm 10.00 Fair CLR 71.6 65.7 82% 30.08 0.0
12 03:05 Calm 10.00 Fair CLR 72 65.5 80% 30.08 0.0
12 02:45 Calm 10.00 Fair CLR 72.5 65.5 79% 30.08 0.0
12 02:25 Calm 10.00 Fair CLR 73.2 65.8 78% 30.08 0.0
12 02:05 Calm 10.00 Fair CLR 73.2 66 78% 30.09 0.0
12 01:45 Calm 10.00 Partly Cloudy SCT048 SCT060 73.6 66.4 85.6 73 78% 30.09 0.0
12 01:25 Calm 10.00 Overcast BKN049 OVC060 74.8 67.1 77% 30.1 0.0
12 01:05 Calm 10.00 Mostly Cloudy BKN049 BKN055 74.3 66.4 76% 30.1 0.0
12 00:45 Calm 10.00 Partly Cloudy SCT049 73 65.5 77% 30.1 0.0
12 00:25 Calm 10.00 Fair CLR 74.3 64.9 73% 30.1 0.0
12 00:05 Calm 10.00 Fair CLR 74.7 64.9 72% 30.09 0.0
11 23:45 Calm 10.00 Partly Cloudy SCT045 75.9 64.9 69% 78 30.09 0.0
11 23:25 Calm 10.00 Mostly Cloudy BKN045 76.6 64.6 66% 78 30.09 0.0
11 23:05 Calm 10.00 Fair CLR 78.6 64.4 62% 80 30.08 0.0
11 22:45 N 3 10.00 Fair CLR 79.2 64.2 60% 81 30.08 0.0
11 22:25 Calm 10.00 Fair CLR 80.2 64 58% 82 30.08 0.0
11 22:05 N 3 10.00 Fair CLR 80.8 64 57% 82 30.07 0.0
11 21:45 N 3 10.00 Fair CLR 81.7 63.9 55% 83 30.07 0.0
11 21:25 N 3 10.00 Fair CLR 82.2 63.7 54% 84 30.06 0.0
11 21:05 N 5 10.00 Fair CLR 82.6 63.9 53% 84 30.05 0.0
11 20:45 N 8 10.00 Fair CLR 83.5 63.7 51% 85 30.05 0.0
11 20:25 N 6 10.00 Fair CLR 84 63.7 50% 85 30.04 0.0
11 20:05 N 9 10.00 Partly Cloudy SCT065 84.7 63.9 50% 86 30.03 0.0
11 19:45 N 9 10.00 Partly Cloudy SCT065 85.6 63.9 92.3 85.6 48% 87 30.03 0.0
11 19:25 N 8 10.00 Partly Cloudy SCT065 86.2 63.9 47% 87 30.03 0.0
11 19:05 N 8 10.00 Overcast OVC065 87.3 64 46% 89 30.02 0.0
11 18:45 N 9 10.00 Mostly Cloudy BKN065 87.3 63.5 45% 88 30.01 0.0
11 18:25 NE 9 10.00 Partly Cloudy SCT065 87.8 63.3 44% 89 30 0.0
11 18:05 N 9 10.00 Partly Cloudy SCT065 88.5 63.5 43% 90 30 0.0
11 17:45 N 8 10.00 Partly Cloudy SCT065 89.4 62.8 41% 90 30 0.0
11 17:25 NW 7 10.00 Mostly Cloudy BKN065 88.7 61.5 40% 89 30 0.0
11 17:05 Calm 10.00 Mostly Cloudy BKN065 89.1 61.2 39% 89 29.99 0.0
11 16:45 Calm 10.00 Overcast OVC065 90.9 61 37% 91 29.99 0.0
11 16:25 N 8 10.00 Mostly Cloudy BKN065 90.7 61.3 38% 91 29.99 0.0
11 16:05 NE 6 10.00 Mostly Cloudy BKN065 90.3 61.3 38% 90 29.99 0.0
11 15:45 W 8 10.00 Partly Cloudy SCT065 90.1 61 38% 90 29.99 0.0
11 15:25 SW 9 10.00 Partly Cloudy SCT065 91.2 61.2 37% 91 29.98 0.0
11 15:05 W 7 10.00 Partly Cloudy SCT065 90.3 60.8 37% 90 29.99 0.0
11 14:45 W 6 10.00 Fair CLR 89.6 60.4 38% 89 29.99 0.0
11 14:25 W 7 10.00 Partly Cloudy SCT060 89.8 60.3 37% 89 29.99 0.0
11 14:05 NW 5 10.00 Partly Cloudy SCT060 88.7 60.6 39% 89 29.99 0.0
11 13:45 NW 7 10.00 Partly Cloudy SCT060 88.2 60.1 89.4 76.6 39% 88 29.99 0.0
11 13:25 NW 9 10.00 Partly Cloudy SCT055 88.7 60.4 39% 88 29.99 0.0
11 13:05 W 6 10.00 Partly Cloudy SCT055 88.5 60.8 39% 88 29.99 0.0
11 12:45 W 12 10.00 Partly Cloudy SCT055 87.1 61.3 42% 87 30 0.0
11 12:25 W 7 10.00 Fair CLR 85.8 60.8 43% 86 29.99 0.0
11 12:05 W 10 10.00 Fair CLR 85.5 60.4 43% 85 30 0.0
11 11:45 NW 7 10.00 Fair CLR 84.2 60.3 44% 84 30 0.0
11 11:25 N 6 10.00 Fair CLR 84.6 60.4 44% 85 30 0.0
11 11:05 NW 9 10.00 Fair CLR 83.5 59.9 45% 84 30 0.0
11 10:45 NW 10 10.00 Fair CLR 83.7 60.1 45% 84 29.99 0.0
11 10:25 W 10 G 16 10.00 Fair CLR 82.6 60.1 47% 83 29.99 0.0
11 10:05 W 9 10.00 Fair CLR 82.2 60.1 47% 83 29.99 0.0
11 09:45 W 12 G 16 10.00 Fair CLR 81.1 59.5 48% 82 29.99 0.0
11 09:25 NW 9 G 16 10.00 Fair CLR 80.4 59.5 49% 81 29.98 0.0
11 09:05 NW 13 10.00 Fair CLR 79.9 59.4 50% 81 29.98 0.0
11 08:45 W 9 10.00 Fair CLR 79 59.4 51% 80 29.98 0.0
11 08:25 W 10 10.00 Fair CLR 79 59.5 51% 80 29.98 0.0
11 08:05 W 8 10.00 Fair CLR 77.5 59.9 55% 79 29.97 0.0
11 07:45 W 6 10.00 Fair CLR 76.5 60.1 79.9 75.4 57% 78 29.97 0.0
11 07:25 W 6 10.00 Fair CLR 76.6 60.1 57% 78 29.96 0.0
11 07:05 W 6 10.00 Fair CLR 76.1 60.1 58% 78 29.96 0.0
11 06:45 W 8 10.00 Partly Cloudy SCT075 75.9 60.1 58% 78 29.95 0.0
11 06:25 W 6 10.00 Partly Cloudy SCT075 75.9 59.9 58% 78 29.94 0.0
11 06:05 W 5 10.00 Fair CLR 75.6 59.9 58% 78 29.93 0.0
11 05:45 W 6 10.00 Fair CLR 75.9 59.9 58% 78 29.93 0.0
11 05:25 W 7 10.00 Fair CLR 76.5 59.7 56% 78 29.92 0.0
11 05:05 W 9 10.00 Partly Cloudy SCT080 76.8 59.9 56% 79 29.92 0.0
11 04:45 W 5 10.00 Overcast OVC080 77.4 60.3 56% 79 29.91 0.0
11 04:25 NW 8 10.00 Overcast OVC080 78.3 60.8 55% 80 29.9 0.0
11 04:05 W 7 10.00 Overcast OVC080 78.6 61.2 55% 80 29.9 0.0
11 03:45 NW 6 10.00 Overcast OVC080 78.6 61.7 56% 80 29.89 0.0
11 03:25 NW 6 10.00 Overcast OVC080 78.6 61.5 56% 80 29.88 0.0
11 03:05 NW 5 10.00 Overcast OVC085 78.6 61.9 57% 80 29.87 0.0
11 02:45 NW 6 10.00 Overcast OVC085 79.2 61.9 56% 81 29.86 0.0
11 02:25 NW 5 10.00 Overcast OVC085 79.3 62.1 56% 81 29.85 0.0
11 02:05 NW 6 10.00 Overcast OVC085 79.3 62.8 57% 81 29.85 0.0
11 01:45 NW 8 10.00 Overcast OVC085 79.9 63.3 90.7 79.3 57% 81 29.85 0.0 0.03
11 01:25 NW 6 10.00 Mostly Cloudy BKN085 79.9 64 59% 82 29.84 0.0
11 01:05 NW 6 10.00 Fair CLR 80.2 65.7 61% 82 29.83 0.0
11 00:45 NW 9 10.00 Partly Cloudy SCT120 81.1 69.3 67% 84 29.82 0.0
11 00:25 W 10 10.00 Mostly Cloudy SCT065 BKN120 81.1 75.6 83% 87 29.82 0.0
11 00:05 W 5 10.00 Overcast SCT036 SCT047 OVC065 81 76.5 86% 88 29.81 0.0
10 23:45 SW 5 7.00 Rain BKN036 BKN047 OVC055 81.5 76.3 84% 89 29.81 0.0 0.01
10 23:25 Calm 10.00 Overcast SCT025 BKN039 OVC060 81.9 75.7 82% 89 29.8 0.0
10 23:05 SW 5 10.00 Mostly Cloudy BKN023 BKN041 BKN090 81.7 75.9 83% 89 29.8 0.0
10 22:45 NW 7 10.00 Mostly Cloudy SCT017 SCT025 BKN055 81.7 76.8 85% 89 29.8 0.0 0.02
10 22:25 W 7 10.00 Partly Cloudy SCT019 SCT055 82.6 77.2 84% 91 29.79 0.0
10 22:05 S 6 10.00 Fair CLR 82.4 76.5 82% 90 29.77 0.0
10 21:45 S 6 10.00 Partly Cloudy SCT110 82.8 77 83% 92 29.75 0.0
10 21:25 S 6 10.00 Mostly Cloudy BKN110 82.4 77.2 84% 91 29.75 0.0
10 21:05 S 5 10.00 Partly Cloudy SCT100 81.5 77 86% 89 29.75 0.0
10 20:45 Calm 10.00 Mostly Cloudy SCT036 SCT050 BKN090 81.5 76.6 85% 89 29.75 0.0 0.02
10 20:25 S 6 10.00 Light Rain SCT035 BKN060 OVC075 82.2 76.3 82% 90 29.76 0.0 0.01
10 20:05 S 8 G 16 10.00 Overcast BKN050 OVC055 90.5 75.6 62% 102 29.74 0.0
10 19:45 S 9 10.00 Mostly Cloudy BKN050 BKN100 90.9 75.4 95.9 90.7 61% 102 29.74 0.0
10 19:25 S 7 10.00 Mostly Cloudy BKN050 91.2 75.2 59% 102 29.76 0.0
10 19:05 S 10 G 18 10.00 Overcast BKN047 OVC055 91.6 74.8 58% 102 29.75 0.0
10 18:45 S 12 G 20 10.00 Overcast BKN047 OVC065 91.8 74.7 57% 102 29.73 0.0
10 18:25 S 10 G 16 10.00 Overcast BKN047 OVC065 92.7 73.9 55% 103 29.72 0.0
10 18:05 S 12 G 20 10.00 Overcast BKN047 OVC065 93.2 73.8 53% 103 29.72 0.0
10 17:45 S 12 10.00 Mostly Cloudy SCT045 BKN060 BKN065 93.7 74.1 53% 104 29.73 0.0
10 17:25 S 13 G 22 10.00 Mostly Cloudy BKN045 BKN070 93.4 73.9 53% 104 29.73 0.0
10 17:05 SE 8 G 20 10.00 Mostly Cloudy SCT045 SCT050 BKN070 93.9 74.1 53% 105 29.73 0.0
10 16:45 S 12 G 21 10.00 Mostly Cloudy SCT047 BKN070 BKN080 93.6 73.9 53% 104 29.74 0.0
10 16:25 S 12 G 21 10.00 Mostly Cloudy SCT045 SCT060 BKN075 95 74.5 52% 106 29.74 0.0
10 16:05 S 12 G 20 10.00 Overcast BKN047 OVC060 93.9 74.3 53% 105 29.76 0.0
10 15:45 S 10 G 20 10.00 Overcast BKN047 OVC070 95 74.3 51% 106 29.76 0.0
10 15:25 S 13 G 20 10.00 Overcast BKN044 OVC065 94.1 74.3 53% 105 29.77 0.0
10 15:05 SE 14 G 21 10.00 Overcast BKN044 BKN050 OVC065 93.9 74.3 53% 105 29.77 0.0
10 14:45 S 12 G 20 10.00 Overcast BKN046 OVC060 94.5 74.5 52% 106 29.78 0.0
10 14:25 S 13 G 17 10.00 Mostly Cloudy SCT043 BKN050 BKN055 93.9 74.1 53% 105 29.78 0.0
10 14:05 S 10 G 16 10.00 Mostly Cloudy BKN043 BKN055 BKN080 93.7 74.7 54% 105 29.79 0.0
10 13:45 S 10 10.00 Mostly Cloudy BKN043 BKN055 BKN065 93.2 74.3 95.9 83.3 54% 104 29.8 0.0
10 13:25 S 9 G 17 10.00 Mostly Cloudy SCT041 SCT048 BKN065 93.9 74.3 53% 105 29.81 0.0
10 13:05 S 10 10.00 Mostly Cloudy BKN041 BKN050 BKN075 93.4 74.3 54% 104 29.81 0.0
10 12:45 S 7 G 20 10.00 Mostly Cloudy SCT039 SCT049 BKN065 93.7 73.9 53% 104 29.82 0.0
10 12:25 S 12 G 22 10.00 Mostly Cloudy SCT037 BKN050 BKN070 93.7 74.7 54% 105 29.82 0.0
10 12:05 S 8 G 18 10.00 Mostly Cloudy BKN037 BKN045 92.5 74.8 56% 104 29.83 0.0
10 11:45 S 8 G 17 10.00 Mostly Cloudy BKN035 BKN045 91.6 75.2 59% 103 29.83 0.0
10 11:25 SE 13 G 17 10.00 Mostly Cloudy BKN033 BKN039 92.1 75.6 59% 104 29.83 0.0
10 11:05 S 12 10.00 Partly Cloudy SCT031 SCT037 91.2 75.4 60% 103 29.84 0.0
10 10:45 S 7 G 16 10.00 Partly Cloudy SCT029 91.2 75.7 61% 103 29.84 0.0
10 10:25 S 8 G 18 10.00 Partly Cloudy SCT027 90.5 76.1 63% 103 29.85 0.0
10 10:05 SE 9 10.00 Partly Cloudy SCT025 90 76.5 65% 102 29.85 0.0
10 09:45 S 6 10.00 Partly Cloudy SCT024 88.3 75.9 67% 99 29.86 0.0
10 09:25 SW 7 10.00 Partly Cloudy SCT020 87.1 75.9 70% 98 29.86 0.0
10 09:05 S 7 10.00 Partly Cloudy SCT020 85.8 75.7 72% 95 29.86 0.0
10 08:45 S 7 10.00 Partly Cloudy SCT018 85.5 75.7 73% 95 29.86 0.0
10 08:25 S 9 10.00 Partly Cloudy SCT018 84.2 75.6 75% 93 29.86 0.0
Date Time (edt) Wind (mph) Vis. (mi.) Weather Sky Cond. Air Dwpt Max. Min. Relative Humidity Wind Chill (°F) Heat Index (°F) altimeter (in) sea level (mb) 1 hr 3 hr 6 hr
6 hour
Temperature (ºF) Pressure Precipitation (in)